This demonstration page uses our WeatherBlox Daily Observations layout. Learn more.

Hourly Observations for October 24, 2019

Temp ( °F °C ) Dew Point ( °F °C ) Humidity (%) Winds ( mph kmh ) Pressure ( in mb ) Visibility ( mi km ) Precip ( " mm )
12:33 am 00:33 Cloudy 39 3.9 33 0.6 79 79 N 17 28 30.33 1027 10 16.09344 0 0
12:54 am 00:54 Cloudy 39 3.9 32 0 76 76 N 17 28 30.3 1026 10 16.09344 0 0
1:54 am 01:54 Cloudy 40 4.4 31 -0.6 70 70 NNW 16 26 30.33 1027 10 16.09344 0 0
2:54 am 02:54 Cloudy 39 3.9 30 -1.1 70 70 N 13 20 30.33 1027 10 16.09344 0 0
3:54 am 03:54 Partly Cloudy 38 3.3 28 -2.2 68 68 NNW 14 22 30.33 1027 10 16.09344 0 0
4:54 am 04:54 Clear 37 2.8 27 -2.8 67 67 NNW 15 24 30.33 1027 10 16.09344 0 0
5:54 am 05:54 Clear 37 2.8 26 -3.3 65 65 NNW 10 17 30.39 1029 10 16.09344 0 0
6:54 am 06:54 Clear 36 2.2 26 -3.3 67 67 NNW 8 13 30.39 1029 10 16.09344 0 0
7:54 am 07:54 Sunny 35 1.7 26 -3.3 70 70 NNW 8 13 30.42 1030 10 16.09344 0 0
8:54 am 08:54 Sunny 35 1.7 27 -2.8 72 72 NW 8 13 30.45 1031 10 16.09344 0 0
9:54 am 09:54 Sunny 39 3.9 27 -2.8 62 62 NNW 13 20 30.48 1032 10 16.09344 0 0
10:54 am 10:54 Sunny 43 6.1 27 -2.8 53 53 N 10 17 30.48 1032 10 16.09344 0 0
11:54 am 11:54 Sunny 45 7.2 25 -3.9 46 46 N 13 20 30.48 1032 10 16.09344 0 0
12:54 pm 12:54 Sunny 48 8.9 26 -3.3 42 42 N 14 22 30.45 1031 10 16.09344 0 0
1:54 pm 13:54 Sunny 49 9.4 25 -3.9 39 39 NNE 14 22 30.42 1030 10 16.09344 0 0
2:54 pm 14:54 Sunny 49 9.4 23 -5 36 36 N 18 30 30.39 1029 10 16.09344 0 0
3:54 pm 15:54 Sunny 49 9.4 23 -5 36 36 NNE 10 17 30.36 1028 10 16.09344 0 0
4:54 pm 16:54 Sunny 49 9.4 23 -5 36 36 N 10 17 30.39 1029 10 16.09344 0 0
5:54 pm 17:54 Sunny 48 8.9 22 -5.6 36 36 Calm 30.39 1029 10 16.09344 0 0
6:54 pm 18:54 Clear 44 6.7 22 -5.6 41 41 Calm 30.42 1030 10 16.09344 0 0
7:54 pm 19:54 Clear 42 5.6 28 -2.2 58 58 Calm 30.42 1030 10 16.09344 0 0
8:54 pm 20:54 Clear 35 1.7 25 -3.9 67 67 Calm 30.42 1030 10 16.09344 0 0
9:54 pm 21:54 Clear 32 0 25 -3.9 75 75 Calm 30.42 1030 10 16.09344 0 0
10:54 pm 22:54 Hazy 29 -1.7 24 -4.4 82 82 Calm 30.42 1030 4 6.437376 0 0
11:54 pm 23:54 Clear with Mist and Fog 29 -1.7 25 -3.9 85 85 NNW 5 7 30.42 1030 3 4.828032 0 0

Powered by AerisWeather